Regional Weather Roundup
Issued by NWS

Home | Current Version | Previous Version | Text Only | Print | Product List | Glossary On
Versions: 1 2 3 4 5 6 7 8 9 10 11 12 13 14 15 16 17 18 19 20 21 22 23 24 25 26 27 28 29 30 31 32 33 34 35 36 37 38 39 40 41 42 43 44 45 46 47 48 49 50
000
ASHW40 PHFO 200910
RWRHI

WEATHER ROUNDUP FOR HAWAII
NATIONAL WEATHER SERVICE HONOLULU HI
1100 PM HST TUE AUG 19 2014

THIS IS AN AUTOMATED REPORT THAT HAS NOT BEEN QUALITY CONTROLLED.

NOTE..."FAIR" INDICATES FEW OR NO CLOUDS BELOW 12,000 FEET WITH NO
SIGNIFICANT WEATHER AND/OR OBSTRUCTIONS TO VISIBILITY.

* - THESE SITES REPORT LIMITED FIELDS

HIZ001>004-201000-
KAUAI-NIIHAU-

CITY           SKY/WX    TMP DP  RH WIND       PRES   REMARKS
LIHUE APT      CLOUDY    78  68  71 E12       30.02S
PORT ALLEN*      N/A     77 N/A N/A E9          N/A
POIPU*           N/A     77 N/A N/A NE7G14      N/A
PRINCEVILLE*   NOT AVBL
KOKOLE POINT*  NOT AVBL
MOLOAA DAIRY*  NOT AVBL
WAIMEA HTS*    NOT AVBL
PUU OPAE*      NOT AVBL
PUU LUA*       NOT AVBL
MAKAHA RIDGE*  NOT AVBL
$$

HIZ005>011-201000-
OAHU-

CITY           SKY/WX    TMP DP  RH WIND       PRES   REMARKS
HONOLULU       MOCLDY    79  67  66 E8        29.99S
KALAELOA       CLEAR     75  66  73 CALM      30.01R
KANEOHE MCB    MOCLDY    77  70  78 E5        30.01R
WHEELER FIELD  MOCLDY    71  66  82 W5        30.01S
BELLOWS*       NOT AVBL
KAHUKU*        NOT AVBL
WHEELER*       NOT AVBL
WAIANAE HARBOR NOT AVBL
DILLINGHAM*      N/A     70  66  88 E1          N/A
KAHUKU TRN*      N/A     75  68  78 E9G18       N/A
KAWAILOA*      NOT AVBL
KII*             N/A     79  70  73 E15         N/A
MAKUA RANGE*     N/A     79  64  61 E5G13       N/A
OAHU FOREST NW NOT AVBL
SCHOFIELD BRK*   N/A     70  66  88 SW1         N/A
SCHOFIELD S*   NOT AVBL
WAIANAE VLY*   NOT AVBL
KUAOKALA*      NOT AVBL
HONOULIUULI*   NOT AVBL
MOKUOLOE IS*     N/A    N/A N/A N/A MISG        N/A
PALEHUA*       NOT AVBL
WAIAWA PHB*    NOT AVBL
$$

HIZ012>013-201000-
MOLOKAI-

CITY           SKY/WX    TMP DP  RH WIND       PRES   REMARKS
MOLOKAI AIRPT  CLEAR     75  69  81 NE9       30.00S
KALAUPAPA      NOT AVBL
MAKAPULAPAI*   NOT AVBL
MOLOKAI 1*     NOT AVBL
PUU ALII*      NOT AVBL
$$

HIZ016-201000-
KAHOOLAWE-

CITY           SKY/WX    TMP DP  RH WIND       PRES   REMARKS
KAHOOLAWE*     NOT AVBL
HAKIOAWA*      NOT AVBL
HONOKANAIA*      N/A     77  66  68 NE9G25      N/A
KANELOA*         N/A     75  68  78 E12G26    30.09S
KEALIALALO*    NOT AVBL
LUA MAKIKA*    NOT AVBL
$$

HIZ014>015-201000-
LANAI-

CITY           SKY/WX    TMP DP  RH WIND       PRES   REMARKS
LANAI CITY     FAIR      71  66  84 E5        30.05S
LANAI 1*       NOT AVBL
$$

HIZ017>028-201000-
MAUI-

CITY           SKY/WX    TMP DP  RH WIND       PRES   REMARKS
KAHULUI        CLEAR     75  66  73 NE10      29.99S
KAPALUA-W MAUI NOT AVBL
HANA AIRPORT   MOCLDY    77  68  73 CALM      30.03S
HANA*          NOT AVBL
HALEAKALA SUMM   N/A     46   1  15 E10         N/A
MAALAEA BAY*   NOT AVBL
HALEAKALA*     NOT AVBL
KAUPO GAP*     NOT AVBL
KULA 1*          N/A     51  36  56 E3          N/A
$$

HIZ023>026-201000-
BIG ISLAND OF HAWAII COAST AND LOWER SLOPES-

CITY           SKY/WX    TMP DP  RH WIND       PRES   REMARKS
KAILUA KONA    MOCLDY    79  65  62 N3        29.96S
HILO           PTCLDY    73  68  84 W6        30.01R
HONOKAA*       NOT AVBL
KAWAIHAE MWT*  NOT AVBL
KAWAIHAE*        N/A     81 N/A N/A SW3         N/A
SOUTH POINT*   NOT AVBL
UPOLU AIRPORT* NOT AVBL
KAMUELA*       SUNNY     63  61  94 NE8       30.09S
HAKALAU*         N/A     51  50  96 SW5         N/A
KALOKO-HONOKO* NOT AVBL
PALI 2*          N/A     66  59  77 N9G15       N/A
KEALAKOMO*       N/A     79  66  65 NE8G22      N/A
KAUPULEHU*     NOT AVBL
KAPAPALA*        N/A     63  60  91 NW3         N/A
LOWER KAHUKU*  NOT AVBL
PUHE CS*       NOT AVBL
PUHO CS*       NOT AVBL
PTA KEAMUKU*     N/A     57  54  88 S3G9        N/A
WAIKOLOA*      NOT AVBL
$$

HIZ027>028-201000-
BIG ISLAND OF HAWAII INTERIOR AND SUMMMITS-

CITY           SKY/WX    TMP DP  RH WIND       PRES   REMARKS
BRADSHAW FIELD CLEAR     48  41  77 SE5       30.32S
MK VISITOR CEN NOT AVBL
MAUNA KEA*       N/A     39 -18   8 CALM        N/A
MAUNA LOA*     NOT AVBL
MAUNA LOA 1*   NOT AVBL
PTA KIPUKA*      N/A     54  52  94 SE5         N/A
PTA RANGE 17*    N/A     57  50  77 SE10G16     N/A
PTA WEST*        N/A     55  52  88 SE6         N/A
NENE CABIN*    NOT AVBL
AHUMOA*        NOT AVBL
PTA PORTABLE*  NOT AVBL
PUU MALI*      NOT AVBL
$$

HIC003-201000-
NORTHWEST ISLANDS-

CITY           SKY/WX    TMP DP  RH WIND       PRES   REMARKS
MIDWAY ISLAND  CLEAR     79  70  73 CALM      30.07S
MIDWAY NOS*    NOT AVBL
FRENCH FRIGATE NOT AVBL
$$

PHZ110>124-180-201000-
BUOY REPORTS

STATION/POSITION TIME  TEMP    WIND        PRES    WAVE   SWELL
                       AIR SEA DIR/SP/G            HT/PER HT/DIR
                 (UTC) (F)     (DEG/KT/KT) (MB)    (FT/S) (FT/D)
BUOY 51001       NOT AVBL
BUOY 51101       NOT AVBL
BUOY 51100       0900           70/ 12       N/A
BUOY 51003       0900   80 82   80/  8/ 10 1015.1R   5/ 7   5
BUOY 51004       0821   79 80   50/ 12/ 16 1013.9S   5/ 8   5/ 80
BARBERS PT BUOY  NOT AVBL
WAIMEA BAY BUOY  0800      81                N/A     3/ 6
KAILUA BAY BUOY  0900      80                N/A     4/ 8   2/130
LANAI BUOY       NOT AVBL
BARBERS PT 2     0800      81                N/A     3/13   2/190
PAUWELA MAUI     0900      80                N/A     4/ 9
HILO             NOT AVBL
KANEOHE BAY BUOY 0800      80                N/A     4/ 8
HANALEI KAUAI    NOT AVBL
KAHULUI HARBOR   0900   78 81   40/ 10/ 13 1015.5F
HONOLULU HARBOR  0900   79      10/  2/  5 1015.9S
KILO NALU        NOT AVBL
HILO HARBOR      0900   74     260/  6/  7 1015.6F
MOKUOLOE         0900      83              1016.3S
NAWILIWILI       0900      82                N/A
WHOTS BUOY       NOT AVBL
BUOY 51028       NOT AVBL
$$

......................KEY........................................
  SKY/WX - SKY CONDITIONS/PRESENT WEATHER
  TMP    - TEMPERATURE IN FAHRENHEIT
  DWPT   - DEWPOINT IN FAHRENHEIT
  RH     - RELATIVE HUMIDITY IN PERCENT
  WIND   - DIRECTION AND SPEED /MPH FOR ISLANDS...KTS FOR BUOYS/
  PRES   - MEAN SEA LEVEL PRESSURE IN INCHES OF HG
  VSB    - VISIBILITY IN MILES
  HX     - HEAT INDEX
  WCI    - WIND CHILL INDEX
  VRB    - VARIABLE WIND DIRECTION
  N/A    - NOT AVAILABLE


USA.gov is the U.S. government's official web portal to all federal, state and local government web resources and services.